This is the latest recevied weather packets stored in our database for station/object AA5QJ. If no packets are shown the sender has not sent any weather packets the latest 1 day(s).
| Time | Temp. | Humidity | Pressure | Rain* | Wind** | Luminosity | Snow |
|---|---|---|---|---|---|---|---|
| 1778028475 | 21.11° C | 31% | 1007.2 hPa | 0 mm | 1.34 m/s, 225° | - | - |
| 1778028175 | 21.11° C | 31% | 1007.2 hPa | 0 mm | 2.24 m/s, 233° | - | - |
| 1778027876 | 21.11° C | 32% | 1007.2 hPa | 0 mm | 0.45 m/s, 208° | - | - |
| 1778027575 | 21.11° C | 31% | 1007.2 hPa | 0 mm | 1.34 m/s, 72° | - | - |
| 1778027275 | 21.67° C | 31% | 1007.2 hPa | 0 mm | 1.34 m/s, 222° | - | - |
| 1778026975 | 21.11° C | 31% | 1007.2 hPa | 0 mm | 0 m/s | - | - |
| 1778026674 | 21.11° C | 31% | 1007.2 hPa | 0 mm | 0.45 m/s, 77° | - | - |
| 1778026374 | 21.11° C | 32% | 1007.5 hPa | 0 mm | 1.34 m/s, 158° | - | - |
| 1778026074 | 21.11° C | 31% | 1007.2 hPa | 0 mm | 3.13 m/s, 243° | - | - |
| 1778025776 | 21.11° C | 32% | 1007.2 hPa | 0 mm | 3.13 m/s, 276° | - | - |
| 1778025476 | 21.11° C | 31% | 1007.2 hPa | 0 mm | 1.34 m/s, 158° | - | - |
| 1778025175 | 21.67° C | 31% | 1007.2 hPa | 0 mm | 0.45 m/s, 152° | - | - |
| 1778024875 | 21.11° C | 32% | 1007.2 hPa | 0 mm | 1.79 m/s, 295° | - | - |
| 1778024575 | 21.11° C | 32% | 1007.2 hPa | 0 mm | 1.79 m/s, 293° | - | - |
| 1778024274 | 21.11° C | 33% | 1007.2 hPa | 0 mm | 1.79 m/s, 304° | - | - |
| 1778023976 | 20.56° C | 33% | 1007.2 hPa | 0 mm | 2.68 m/s, 263° | - | - |
| 1778023675 | 20.56° C | 33% | 1007.2 hPa | 0 mm | 1.34 m/s, 13° | - | - |
| 1778023375 | 20.56° C | 33% | 1007.2 hPa | 0 mm | 2.68 m/s, 115° | - | - |
| 1778023075 | 20.56° C | 34% | 1007.2 hPa | 0 mm | 0 m/s | - | - |
| 1778022774 | 20.56° C | 33% | 1007.5 hPa | 0 mm | 0 m/s | - | - |
| 1778022474 | 20.56° C | 34% | 1007.5 hPa | 0 mm | 0.89 m/s, 145° | - | - |
| 1778022176 | 20.56° C | 33% | 1007.5 hPa | 0 mm | 2.68 m/s, 136° | - | - |
| 1778021875 | 20.56° C | 34% | 1007.5 hPa | 0 mm | 2.24 m/s, 117° | - | - |
| 1778021575 | 20.56° C | 34% | 1007.5 hPa | 0 mm | 1.79 m/s, 127° | - | - |
| 1778021274 | 20.56° C | 33% | 1007.8 hPa | 0 mm | 1.34 m/s, 266° | - | - |
* Rain latest hour (hover to see other rain measurements)
** Current wind speed in m/s (hover to see current wind gust speed)